Weather History for Romeoville, IL

Change the Weather History Date:

Saturday, February 8, 2014

  Actual Average Record
Temperature  
Mean Temperature 9 °F 25 °F  
Max Temperature 15 °F 33 °F 53 °F (2001)
Min Temperature 2 °F 18 °F -12 °F (2007)
Degree Days  
Heating Degree Days 56 40  
Month to date heating degree days 443 323  
Since 1 July heating degree days 4651 4004  
Cooling Degree Days 0 0  
Month to date cooling degree days 0 0  
Year to date cooling degree days 0 0  
Moisture  
Dew Point 7 °F    
Average Humidity 83    
Maximum Humidity 92    
Minimum Humidity 75    
Precipitation  
Precipitation 0.08 in 0.05 in 0.88 in (2001)
Month to date precipitation 0.75 0.43  
Year to date precipitation 3.37 2.36  
Snow  
Snow 3.40 in 0.30 in 0.00 in (1997)
Month to date snowfall 13.8 2.1  
Since 1 July snowfall 57.0 23.1  
Snow Depth 10.00 in    
Sea Level Pressure  
Sea Level Pressure 30.21 in    
Wind  
Wind Speed 5 mph (SSE)    
Max Wind Speed 9 mph    
Max Gust Speed -    
Visibility 6 miles    
Events Snow    
T = Trace of Precipitation, MM = Missing Value Source: NWS Daily Summary

Daily Weather History Graph

Daily Weather History Graph

Search for Another Location

Airport:

Trip Planner

Search our weather history database for the weather conditions in past years. The results will help you decide how hot, cold, wet, or windy it might be!

Date:

Astronomy

Feb. 08, 2014 Rise Set
Actual Time 6:56 AM CST 5:17 PM CST
Civil Twilight 6:27 AM CST 5:46 PM CST
Nautical Twilight 5:54 AM CST 6:18 PM CST
Astronomical Twilight 5:22 AM CST 6:51 PM CST
Moon 12:09 PM CST (2/8) 2:09 AM CST (2/8)
Length of Visible Light 11h 18m
Length of Day
10h 20m
Waxing Gibbous, 69% of the Moon is Illuminated
Feb 8
Waxing Gibbous
Feb 14
Full
Feb 22
Last Quarter
Mar 1
New
Mar 8
First Quarter

Hourly Weather History & Observations

Time (CST) Temp. Windchill Dew Point Humidity Pressure Visibility Wind Dir Wind Speed Gust Speed Precip Events Conditions
12:15 AM 3.4 °F -7.5 °F -2.9 °F 75% 30.33 in 10.0 mi SW 5.8 mph - N/A   Clear
12:35 AM 3.2 °F -4.2 °F -2.7 °F 76% 30.33 in 10.0 mi SW 3.5 mph - N/A   Clear
12:55 AM 2.7 °F -6.8 °F -3.1 °F 77% 30.32 in 10.0 mi SSW 4.6 mph - N/A   Mostly Cloudy
1:15 AM 2.8 °F -6.6 °F -2.7 °F 78% 30.32 in 10.0 mi SSW 4.6 mph - N/A   Overcast
1:35 AM 3.7 °F -5.5 °F -2.2 °F 76% 30.32 in 10.0 mi South 4.6 mph - N/A   Overcast
1:55 AM 4.1 °F -5.1 °F -1.3 °F 78% 30.31 in 10.0 mi SE 4.6 mph - N/A   Overcast
2:15 AM 3.9 °F -5.3 °F -1.3 °F 79% 30.31 in 10.0 mi SE 4.6 mph - N/A   Overcast
2:35 AM 4.1 °F -5.1 °F -0.9 °F 80% 30.30 in 10.0 mi SSE 4.6 mph - N/A   Overcast
2:55 AM 4.8 °F -4.3 °F -0.4 °F 79% 30.30 in 10.0 mi SSE 4.6 mph - N/A   Overcast
3:15 AM 5.0 °F -2.1 °F -0.4 °F 78% 30.30 in 10.0 mi SSE 3.5 mph - N/A   Overcast
3:35 AM 5.0 °F -2.1 °F -0.4 °F 78% 30.29 in 10.0 mi SSE 3.5 mph - N/A   Overcast
3:55 AM 5.4 °F -3.6 °F -0.2 °F 78% 30.29 in 10.0 mi SSE 4.6 mph - N/A   Overcast
4:15 AM 5.7 °F -4.8 °F -0.0 °F 77% 30.29 in 10.0 mi SSE 5.8 mph - N/A   Overcast
4:35 AM 5.9 °F -3.0 °F 0.5 °F 78% 30.28 in 10.0 mi SE 4.6 mph - N/A Snow Light Snow
4:55 AM 6.3 °F -0.7 °F 0.5 °F 77% 30.28 in 10.0 mi SE 3.5 mph - N/A   Overcast
5:15 AM 6.4 °F -0.5 °F 0.7 °F 77% 30.28 in 10.0 mi SE 3.5 mph - N/A Snow Light Snow
5:35 AM 6.6 °F -0.3 °F 1.0 °F 78% 30.28 in 10.0 mi SSE 3.5 mph - N/A Snow Light Snow
5:55 AM 6.8 °F -0.1 °F 1.2 °F 78% 30.27 in 10.0 mi SE 3.5 mph - N/A Snow Light Snow
6:15 AM 6.8 °F -2.0 °F 1.6 °F 79% 30.26 in 10.0 mi SE 4.6 mph - N/A Snow Light Snow
6:35 AM 7.3 °F -1.3 °F 2.1 °F 79% 30.26 in 10.0 mi SE 4.6 mph - N/A Snow Light Snow
6:55 AM 7.3 °F -2.8 °F 2.3 °F 80% 30.26 in 10.0 mi SSE 5.8 mph - N/A Snow Light Snow
7:15 AM 7.5 °F -1.1 °F 2.5 °F 80% 30.26 in 10.0 mi SE 4.6 mph - N/A Snow Light Snow
7:35 AM 7.9 °F -0.7 °F 3.2 °F 81% 30.27 in 7.0 mi SSE 4.6 mph - N/A Snow Light Snow
7:55 AM 8.2 °F -0.3 °F 3.7 °F 82% 30.27 in 4.0 mi South 4.6 mph - N/A Snow Light Snow
8:15 AM 8.6 °F -2.6 °F 4.5 °F 83% 30.26 in 3.0 mi SSE 6.9 mph - N/A Snow Light Snow
8:35 AM 9.1 °F -1.9 °F 5.0 °F 83% 30.26 in 3.0 mi South 6.9 mph - N/A Snow Light Snow
8:55 AM 9.5 °F -1.5 °F 5.5 °F 84% 30.26 in 3.0 mi SSE 6.9 mph - N/A Snow Light Snow
9:15 AM 10.0 °F -0.9 °F 5.9 °F 83% 30.26 in 3.0 mi South 6.9 mph - N/A Snow Light Snow
9:35 AM 10.4 °F -0.4 °F 6.3 °F 83% 30.26 in 3.0 mi South 6.9 mph - N/A Snow Light Snow
9:55 AM 11.1 °F 0.4 °F 6.6 °F 82% 30.24 in 3.0 mi SSE 6.9 mph - N/A Snow Light Snow
10:15 AM 11.8 °F 1.3 °F 6.8 °F 80% 30.25 in 4.0 mi South 6.9 mph - N/A Snow Light Snow
10:35 AM 11.8 °F 2.5 °F 7.0 °F 81% 30.25 in 4.0 mi South 5.8 mph - N/A Snow Light Snow
10:55 AM 12.4 °F 2.0 °F 7.5 °F 81% 30.24 in 5.0 mi South 6.9 mph - N/A Snow Light Snow
11:15 AM 12.2 °F 0.7 °F 7.2 °F 80% 30.23 in 3.0 mi South 8.1 mph - N/A Snow Light Snow
11:35 AM 12.4 °F 2.0 °F 7.3 °F 80% 30.22 in 4.0 mi SSE 6.9 mph - N/A Snow Light Snow
11:55 AM 12.6 °F 2.2 °F 7.7 °F 81% 30.20 in 3.0 mi SSE 6.9 mph - N/A Snow Light Snow
12:15 PM 12.7 °F 0.4 °F 7.7 °F 80% 30.20 in 3.0 mi South 9.2 mph - N/A Snow Light Snow
12:35 PM 12.4 °F 0.9 °F 8.2 °F 83% 30.18 in 0.8 mi SSE 8.1 mph - N/A Snow Snow
12:55 PM 12.7 °F 5.0 °F 9.1 °F 86% 30.18 in 0.2 mi SSE 4.6 mph - N/A Snow Snow
1:15 PM 12.7 °F 5.0 °F 8.8 °F 84% 30.17 in 0.5 mi SSE 4.6 mph - N/A Snow Light Snow
1:35 PM 13.1 °F 5.4 °F 9.1 °F 84% 30.16 in 0.8 mi SSE 4.6 mph - N/A Snow Snow
1:55 PM 13.1 °F 2.8 °F 9.5 °F 86% 30.14 in 1.5 mi SE 6.9 mph - N/A Snow Light Snow
2:15 PM 13.5 °F 3.3 °F 9.3 °F 84% 30.14 in 1.0 mi SE 6.9 mph - N/A Snow Light Snow
2:35 PM 13.5 °F 3.3 °F 9.3 °F 84% 30.14 in 1.0 mi SE 6.9 mph - N/A Snow Light Snow
2:55 PM 14.0 °F 3.9 °F 10.0 °F 84% 30.14 in 1.0 mi SSE 6.9 mph - N/A Snow Light Snow
3:15 PM 14.0 °F 3.9 °F 10.4 °F 86% 30.15 in 2.0 mi South 6.9 mph - N/A Snow Light Snow
3:35 PM 14.5 °F 7.1 °F 10.8 °F 85% 30.15 in 1.8 mi SSE 4.6 mph - N/A Snow Light Snow
3:55 PM 14.5 °F 4.6 °F 11.1 °F 86% 30.14 in 0.8 mi SSE 6.9 mph - N/A Snow Light Snow
4:15 PM 14.7 °F 5.9 °F 11.1 °F 86% 30.14 in 1.8 mi SSE 5.8 mph - N/A Snow Light Snow
4:35 PM 14.7 °F 4.8 °F 11.1 °F 86% 30.13 in 2.5 mi SSE 6.9 mph - N/A Snow Light Snow
4:55 PM 14.9 °F 6.1 °F 11.3 °F 86% 30.14 in 2.0 mi South 5.8 mph - N/A Snow Light Snow
5:15 PM 14.9 °F 6.1 °F 11.3 °F 86% 30.14 in 1.8 mi South 5.8 mph - N/A Snow Light Snow
5:35 PM 14.9 °F 6.1 °F 11.7 °F 87% 30.14 in 2.5 mi SSE 5.8 mph - N/A Snow Light Snow
5:55 PM 14.7 °F 5.9 °F 11.7 °F 88% 30.14 in 4.0 mi SSE 5.8 mph - N/A Snow Light Snow
6:15 PM 14.7 °F 5.9 °F 11.8 °F 88% 30.14 in 5.0 mi SSE 5.8 mph - N/A Snow Light Snow
6:35 PM 14.7 °F 7.3 °F 11.8 °F 88% 30.14 in 5.0 mi SSE 4.6 mph - N/A Snow Light Snow
6:55 PM 14.7 °F 5.9 °F 11.8 °F 88% 30.14 in 5.0 mi SSE 5.8 mph - N/A Snow Light Snow
7:15 PM 14.7 °F 7.3 °F 12.0 °F 89% 30.14 in 7.0 mi SSE 4.6 mph - N/A Snow Light Snow
7:35 PM 14.7 °F 9.0 °F 12.0 °F 89% 30.14 in 7.0 mi South 3.5 mph - N/A Snow Light Snow
7:55 PM 14.7 °F 9.0 °F 12.0 °F 89% 30.13 in 7.0 mi South 3.5 mph - N/A Snow Light Snow
8:15 PM 14.7 °F 5.9 °F 12.0 °F 89% 30.13 in 7.0 mi South 5.8 mph - N/A Snow Light Snow
8:35 PM 14.9 °F 7.5 °F 12.2 °F 89% 30.13 in 10.0 mi South 4.6 mph - N/A Snow Light Snow
8:55 PM 14.5 °F 8.8 °F 11.8 °F 89% 30.14 in 7.0 mi SSW 3.5 mph - N/A Snow Light Snow
9:15 PM 14.7 °F 9.0 °F 12.4 °F 90% 30.14 in 10.0 mi SSW 3.5 mph - N/A Snow Light Snow
9:35 PM 14.5 °F 7.1 °F 12.2 °F 90% 30.14 in 10.0 mi SSW 4.6 mph - N/A Snow Light Snow
9:55 PM 15.3 °F - 12.7 °F 90% 30.13 in 10.0 mi Calm Calm - N/A   Overcast
10:15 PM 14.9 °F - 12.7 °F 91% 30.13 in 10.0 mi Calm Calm - N/A   Overcast
10:35 PM 14.9 °F - 12.9 °F 92% 30.13 in 10.0 mi Calm Calm - N/A   Overcast
10:55 PM 15.4 °F 8.1 °F 13.3 °F 91% 30.12 in 10.0 mi WSW 4.6 mph - N/A Snow Light Snow
11:15 PM 15.3 °F 9.6 °F 13.1 °F 91% 30.12 in 10.0 mi WSW 3.5 mph - N/A   Overcast
11:35 PM 15.6 °F 8.3 °F 13.5 °F 91% 30.12 in 10.0 mi West 4.6 mph - N/A   Overcast
11:55 PM 15.8 °F 7.2 °F 13.6 °F 91% 30.12 in 10.0 mi West 5.8 mph - N/A   Overcast